Le nostre stazioni meteo in Italia

Pubblicità
Il mio iltempo24.it
Reggio Calabria, Italia (16422): Temperatura & dewpoint: 05.12.2018 02:00:00 - 11.12.2018 02:00:00 (CET)Reggio Calabria, Italia (16422): velocità del vento: 05.12.2018 02:00:00 - 11.12.2018 02:00:00 (CET)Reggio Calabria, Italia (16422): direzione del vento: 05.12.2018 02:00:00 - 11.12.2018 02:00:00 (CET)Reggio Calabria, Italia (16422): visibility: 05.12.2018 02:00:00 - 11.12.2018 02:00:00 (CET)
Data & Tempo tt [°C] td [°C] ff [km/h] ff [kn] dd vv [km]
11.12.2018 02:00:00 - - - - - -
11.12.2018 01:00:00 - - - - - -
11.12.2018 00:00:00 14,0 5,0 22 12 NO 10
10.12.2018 23:00:00 14,0 6,0 28 15 NO 10
10.12.2018 22:00:00 13,0 9,0 11 6 N 10
10.12.2018 21:00:00 11,0 8,0 5 3 N 10
10.12.2018 20:00:00 11,0 9,0 29 16 N 8
10.12.2018 19:00:00 13,0 8,0 28 15 N 8
10.12.2018 18:00:00 13,0 10,0 22 12 NNE 8
10.12.2018 17:00:00 16,0 9,0 28 15 NO 10
10.12.2018 16:00:00 16,0 8,0 28 15 NO 10
10.12.2018 15:00:00 17,0 9,0 24 13 NO 10
10.12.2018 14:00:00 18,0 9,0 28 15 NNO 10
10.12.2018 13:00:00 18,0 9,0 26 14 NNO 10
10.12.2018 12:00:00 18,0 9,0 26 14 NO 10
10.12.2018 11:00:00 18,0 10,0 28 15 NO 10
10.12.2018 10:00:00 17,0 10,0 28 15 NO 10
10.12.2018 09:00:00 16,0 10,0 28 15 NNO 10
10.12.2018 08:00:00 15,0 10,0 24 13 NNO 10
10.12.2018 07:00:00 14,0 10,0 21 11 N 10
10.12.2018 06:00:00 13,0 11,0 16 9 N 10
10.12.2018 05:00:00 - - - - - -
10.12.2018 04:00:00 - - - - - -
10.12.2018 03:00:00 - - - - - -
10.12.2018 02:00:00 - - - - - -
10.12.2018 01:00:00 - - - - - -
10.12.2018 00:00:00 18,0 9,0 15 8 - 10
09.12.2018 23:00:00 18,0 10,0 16 9 NNO 10
09.12.2018 22:00:00 17,0 11,0 16 9 N 10
09.12.2018 21:00:00 18,0 11,0 18 10 NNO 10
09.12.2018 20:00:00 18,0 10,0 24 13 N 10
09.12.2018 19:00:00 17,0 11,0 18 10 N 10
09.12.2018 18:00:00 17,0 9,0 21 11 N 10
09.12.2018 17:00:00 16,0 8,0 29 16 N 10
09.12.2018 16:00:00 17,0 9,0 24 13 NNO 10
09.12.2018 15:00:00 16,0 11,0 24 13 N 10
09.12.2018 14:00:00 16,0 9,0 21 11 NNO 10
09.12.2018 13:00:00 18,0 8,0 22 12 N 10
09.12.2018 12:00:00 18,0 8,0 22 12 NNO 10
09.12.2018 11:00:00 18,0 8,0 22 12 N 10
09.12.2018 10:00:00 18,0 7,0 28 15 N 10
09.12.2018 09:00:00 17,0 7,0 26 14 NNO 10
09.12.2018 08:00:00 16,0 6,0 28 15 NNO 10
09.12.2018 07:00:00 16,0 7,0 29 16 NNO 10
09.12.2018 06:00:00 16,0 7,0 24 13 NNO 10
09.12.2018 05:00:00 - - - - - -
09.12.2018 04:00:00 - - - - - -
09.12.2018 03:00:00 - - - - - -
09.12.2018 02:00:00 - - - - - -
09.12.2018 01:00:00 - - - - - -
09.12.2018 00:00:00 16,0 8,0 26 14 NNO 10
08.12.2018 23:00:00 16,0 8,0 29 16 NNO 10
08.12.2018 22:00:00 16,0 9,0 22 12 NNO 10
08.12.2018 21:00:00 15,0 8,0 18 10 N 10
08.12.2018 20:00:00 16,0 8,0 16 9 NNO 10
08.12.2018 19:00:00 15,0 8,0 18 10 NNO 10
08.12.2018 18:00:00 15,0 9,0 22 12 N 10
08.12.2018 17:00:00 14,0 12,0 31 17 NNO 10
08.12.2018 16:00:00 18,0 10,0 18 10 NNO 10
08.12.2018 15:00:00 19,0 11,0 15 8 NNO 10
08.12.2018 14:00:00 19,0 10,0 22 12 NNO 10
08.12.2018 13:00:00 19,0 9,0 16 9 NO 10
08.12.2018 12:00:00 20,0 9,0 21 11 NNO 10
08.12.2018 11:00:00 20,0 8,0 8 4 N 10
08.12.2018 10:00:00 19,0 10,0 13 7 N 10
08.12.2018 09:00:00 17,0 11,0 11 6 NNE 10
08.12.2018 08:00:00 15,0 11,0 8 4 NNO 10
08.12.2018 07:00:00 15,0 11,0 13 7 N 10
08.12.2018 06:00:00 15,0 11,0 15 8 NNE 10
08.12.2018 05:00:00 - - - - - -
08.12.2018 04:00:00 - - - - - -
08.12.2018 03:00:00 - - - - - -
08.12.2018 02:00:00 - - - - - -
08.12.2018 01:00:00 - - - - - -
08.12.2018 00:00:00 11,0 9,0 11 6 NE 10
07.12.2018 23:00:00 11,0 9,0 11 6 NE 10
07.12.2018 22:00:00 11,0 9,0 9 5 ENE 10
07.12.2018 21:00:00 11,0 9,0 9 5 ENE 10
07.12.2018 20:00:00 12,0 9,0 9 5 ENE 10
07.12.2018 19:00:00 12,0 10,0 9 5 NE 10
07.12.2018 18:00:00 13,0 10,0 8 4 NE 10
07.12.2018 17:00:00 15,0 10,0 8 4 SSO 10
07.12.2018 16:00:00 17,0 10,0 9 5 SSO 10
07.12.2018 15:00:00 18,0 11,0 11 6 SSO 10
07.12.2018 14:00:00 18,0 10,0 16 9 S 10
07.12.2018 13:00:00 18,0 10,0 16 9 SSO 10
07.12.2018 12:00:00 17,0 11,0 11 6 OSO 10
07.12.2018 11:00:00 18,0 11,0 8 4 OSO 10
07.12.2018 10:00:00 17,0 11,0 5 3 - 10
07.12.2018 09:00:00 16,0 10,0 5 3 E 10
07.12.2018 08:00:00 12,0 8,0 8 4 ENE 10
07.12.2018 07:00:00 11,0 8,0 9 5 NE 10
07.12.2018 06:00:00 12,0 9,0 11 6 NE 10
07.12.2018 05:00:00 - - - - - -
07.12.2018 04:00:00 - - - - - -
07.12.2018 03:00:00 - - - - - -
07.12.2018 02:00:00 - - - - - -
07.12.2018 01:00:00 - - - - - -
07.12.2018 00:00:00 13,0 9,0 9 5 NE 10
06.12.2018 23:00:00 12,0 9,0 9 5 NE 10
06.12.2018 22:00:00 14,0 9,0 2 1 - 10
06.12.2018 21:00:00 14,0 10,0 9 5 ENE 10
06.12.2018 20:00:00 13,0 10,0 8 4 ENE 10
06.12.2018 19:00:00 14,0 11,0 8 4 ENE 10
06.12.2018 18:00:00 15,0 12,0 5 3 E 10
06.12.2018 17:00:00 15,0 12,0 4 2 O 10
06.12.2018 16:00:00 17,0 12,0 4 2 - 10
06.12.2018 15:00:00 19,0 9,0 11 6 N 10
06.12.2018 14:00:00 19,0 11,0 18 10 N 10
06.12.2018 13:00:00 20,0 10,0 15 8 N 10
06.12.2018 12:00:00 19,0 11,0 18 10 N 10
06.12.2018 11:00:00 18,0 11,0 16 9 N 10
06.12.2018 10:00:00 17,0 12,0 15 8 NNE 10
06.12.2018 09:00:00 16,0 11,0 15 8 NNE 10
06.12.2018 08:00:00 15,0 11,0 9 5 NNE 10
06.12.2018 07:00:00 15,0 11,0 15 8 N 10
06.12.2018 06:00:00 15,0 11,0 13 7 NNE 10
06.12.2018 05:00:00 - - - - - -
06.12.2018 04:00:00 - - - - - -
06.12.2018 03:00:00 - - - - - -
06.12.2018 02:00:00 - - - - - -
06.12.2018 01:00:00 - - - - - -
06.12.2018 00:00:00 14,0 10,0 13 7 NNE 10
05.12.2018 23:00:00 15,0 10,0 11 6 NNE 10
05.12.2018 22:00:00 15,0 10,0 16 9 NNE 10
05.12.2018 21:00:00 15,0 9,0 13 7 NNE 10
05.12.2018 20:00:00 14,0 9,0 16 9 NE 10
05.12.2018 19:00:00 14,0 9,0 13 7 NE 10
05.12.2018 18:00:00 14,0 9,0 13 7 NE 10
05.12.2018 17:00:00 16,0 10,0 13 7 N 10
05.12.2018 16:00:00 18,0 9,0 15 8 N 10
05.12.2018 15:00:00 19,0 8,0 18 10 N 10
05.12.2018 14:00:00 19,0 7,0 26 14 N 10
05.12.2018 13:00:00 19,0 7,0 24 13 NNO 10
05.12.2018 12:00:00 19,0 9,0 24 13 NNO 10
05.12.2018 11:00:00 19,0 9,0 22 12 NNO 10
05.12.2018 10:00:00 19,0 9,0 16 9 NNO 10
05.12.2018 09:00:00 18,0 13,0 9 5 N 10
05.12.2018 08:00:00 17,0 12,0 11 6 N 10
05.12.2018 07:00:00 16,0 13,0 15 8 N 10
05.12.2018 06:00:00 17,0 15,0 21 11 N 10
05.12.2018 05:00:00 - - - - - -
05.12.2018 04:00:00 - - - - - -
05.12.2018 03:00:00 - - - - - -
05.12.2018 02:00:00 - - - - - -

tt = Temperatura
td = dewpoint
ff = velocità del vento
dd = direzione del vento
vv = visibility

Stazioni seguenti

WeatherPro
AMSI
MeteoEarth